Flag for Venezuela Weather past 2 weeks in Maracay, Venezuela

Now
75 °F

Partly cloudy.


Feels Like: 75 °F
Forecast: 69 / 90 °F
Wind: No wind

Location: Valencia Airport

Current Time: Aug 23, 2014 at 6:01:21 AM

Latest Report: Aug 23, 2014 at 4:30 AM


Visibility: N/A

Pressure: 29.92 "Hg

Humidity: 83%

Dew point: 70 °F

Location of MaracayLocation

Historic Weather in Maracay — Graph

°F

Maracay temperature yesterday

Maximum temperature yesterday: 84 °F (at 11:30 AM)
Minimum temperature yesterday: 72 °F (at 6:30 AM)
Average temperature yesterday: 79 °F

Past Weeks' High & Low Weather Summary

 TemperatureHumidityPressure
High90 °F (Aug 12, 1:30 PM)100% (Aug 8, 5:30 AM)30.09 "Hg (Aug 8, 5:30 AM)
Low70 °F (Aug 18, 9:30 PM)49% (Aug 12, 2:30 PM)29.86 "Hg (Aug 22, 3:30 PM)
Average79 °F77%29.99 "Hg
* Reported Aug 8 5:30 AM — Aug 23 4:30 AM, Maracay, Weather by CustomWeather, © 2014

Note: Actual official high and low records may vary slightly from our data, if they occured in-between our weather recording intervals... More about our weather records

Advertising

Maracay weather history for previous 24 hours

 ConditionsComfort  
Time TempWeatherWind HumidityBarometerVisibility
4:30 AM
Aug 23
75 °FPartly cloudy.No wind83%29.92 "HgN/A
1:30 AM75 °FPartly cloudy.No wind89%29.95 "HgN/A
10:30 PM
Aug 22
77 °FPartly cloudy.1 mph89%29.98 "HgN/A
9:30 PM77 °FPartly cloudy.3 mph89%29.95 "HgN/A
8:30 PM77 °FPartly cloudy.5 mph83%29.95 "HgN/A
7:30 PM77 °FPartly cloudy.7 mph83%29.89 "HgN/A
6:30 PM77 °FPassing clouds.6 mph83%29.89 "HgN/A
5:30 PM77 °FPartly sunny.8 mph89%29.86 "HgN/A
4:30 PM79 °FDrizzle. Partly sunny.7 mph79%29.86 "Hg6 mi
3:30 PM82 °FThundershowers. Partly sunny.12 mph70%29.86 "Hg6 mi
2:30 PM84 °FPartly sunny.8 mph62%29.89 "HgN/A
1:30 PM84 °FPartly sunny.14 mph66%29.92 "HgN/A
12:30 PM84 °FPartly sunny.12 mph66%29.95 "HgN/A
11:30 AM84 °FPartly sunny.14 mph66%29.95 "HgN/A
10:30 AM81 °FPartly sunny.14 mph74%29.98 "HgN/A
9:30 AM81 °FPartly sunny.3 mph74%29.98 "HgN/A
8:30 AM77 °FPartly sunny.5 mph79%30.04 "HgN/A
7:30 AM75 °FPartly sunny.3 mph89%30.01 "HgN/A
6:30 AM72 °FPartly sunny.No wind83%29.98 "HgN/A
Weather by CustomWeather, © 2014

See weather overviewHow to use our weather pages